Weather History for Northeast Philadelphia, PA

Change the Weather History Date:

Tuesday, February 12, 2013

  Actual Average Record
Temperature  
Mean Temperature 39 °F -  
Max Temperature 46 °F 41 °F 69 °F (1999)
Min Temperature 32 °F 24 °F 7 °F (2014)
Degree Days  
Heating Degree Days 26    
Moisture  
Dew Point 25 °F    
Average Humidity 54    
Maximum Humidity 79    
Minimum Humidity 42    
Precipitation  
Precipitation 0.00 in - - ()
Sea Level Pressure  
Sea Level Pressure 29.93 in    
Wind  
Wind Speed 10 mph (WNW)    
Max Wind Speed 21 mph    
Max Gust Speed 31 mph    
Visibility 10 miles    
Events      
Averages and records for this station are not official NWS values.
T = Trace of Precipitation, MM = Missing Value Source: NWS Daily Summary

Daily Weather History Graph

Daily Weather History Graph

Search for Another Location

Airport:

Trip Planner

Search our weather history database for the weather conditions in past years. The results will help you decide how hot, cold, wet, or windy it might be!

Date:

Astronomy

Feb. 12, 2013 Rise Set
Actual Time 6:56 AM EST 5:32 PM EST
Civil Twilight 6:28 AM EST 6:00 PM EST
Nautical Twilight 5:56 AM EST 6:32 PM EST
Astronomical Twilight 5:25 AM EST 7:03 PM EST
Moon 7:52 AM EST (2/12) 8:30 PM EST (2/12)
Length of Visible Light 11h 32m
Length of Day
10h 36m
Waxing Crescent, 7% of the Moon is Illuminated
Feb 12
Waxing Crescent
Feb 17
First Quarter
Feb 25
Full
Mar 4
Last Quarter
Mar 11
New

Hourly Weather History & Observations

Time (EST) Temp. Windchill Dew Point Humidity Pressure Visibility Wind Dir Wind Speed Gust Speed Precip Events Conditions
12:54 AM 42.1 °F 40.2 °F 36.0 °F 79% 29.80 in 10.0 mi West 3.5 mph - N/A   Clear
1:54 AM 41.0 °F 35.8 °F 30.9 °F 67% 29.81 in 10.0 mi West 8.1 mph - N/A   Clear
2:54 AM 39.0 °F 34.0 °F 28.0 °F 65% 29.82 in 10.0 mi West 6.9 mph - N/A   Clear
3:54 AM 37.0 °F 31.0 °F 28.0 °F 70% 29.84 in 10.0 mi West 8.1 mph - N/A   Clear
4:54 AM 39.9 °F 31.8 °F 26.1 °F 58% 29.85 in 10.0 mi NW 15.0 mph 24.2 mph N/A   Partly Cloudy
5:54 AM 41.0 °F 33.5 °F 23.0 °F 49% 29.89 in 10.0 mi NW 13.8 mph 25.3 mph N/A   Overcast
6:54 AM 39.9 °F 33.9 °F 24.1 °F 53% 29.90 in 10.0 mi West 9.2 mph - N/A   Overcast
7:54 AM 39.9 °F 34.5 °F 25.0 °F 55% 29.93 in 10.0 mi WSW 8.1 mph - N/A   Overcast
8:54 AM 43.0 °F 34.8 °F 25.0 °F 49% 29.94 in 10.0 mi West 18.4 mph 24.2 mph N/A   Partly Cloudy
9:54 AM 44.1 °F 36.2 °F 24.1 °F 45% 29.95 in 10.0 mi WNW 18.4 mph 31.1 mph N/A   Scattered Clouds
10:54 AM 45.0 °F 37.9 °F 24.1 °F 44% 29.96 in 10.0 mi WNW 16.1 mph 29.9 mph N/A   Partly Cloudy
11:54 AM 46.0 °F 38.3 °F 25.0 °F 44% 29.97 in 10.0 mi WNW 20.7 mph 28.8 mph N/A   Partly Cloudy
12:54 PM 46.0 °F 38.8 °F 25.0 °F 44% 29.96 in 10.0 mi WNW 18.4 mph 28.8 mph N/A   Partly Cloudy
1:54 PM 46.0 °F 39.3 °F 25.0 °F 44% 29.96 in 10.0 mi NW 16.1 mph 24.2 mph N/A   Clear
2:54 PM 45.0 °F 38.5 °F 23.0 °F 42% 29.93 in 10.0 mi WNW 13.8 mph 26.5 mph N/A   Clear
3:54 PM 45.0 °F 38.9 °F 23.0 °F 42% 29.88 in 10.0 mi NNW 12.7 mph 19.6 mph N/A   Clear
4:54 PM 43.0 °F 36.0 °F 23.0 °F 45% 29.95 in 10.0 mi NW 13.8 mph 21.9 mph N/A   Clear
5:54 PM 39.9 °F 35.1 °F 21.9 °F 49% 30.00 in 10.0 mi WNW 6.9 mph - N/A   Clear
6:54 PM 39.0 °F 32.8 °F 21.9 °F 50% 30.01 in 10.0 mi NW 9.2 mph - N/A   Clear
7:54 PM 37.0 °F 31.0 °F 21.9 °F 54% 29.99 in 10.0 mi NNW 8.1 mph - N/A   Clear
8:54 PM 35.1 °F 31.0 °F 21.9 °F 59% 29.97 in 10.0 mi NW 4.6 mph - N/A   Clear
9:54 PM 33.1 °F 30.0 °F 21.9 °F 64% 29.97 in 10.0 mi SSW 3.5 mph - N/A   Clear
10:54 PM 32.0 °F 28.7 °F 21.9 °F 66% 29.99 in 10.0 mi SW 3.5 mph - N/A   Clear
11:54 PM 33.1 °F 30.0 °F 21.9 °F 64% 29.99 in 10.0 mi West 3.5 mph - N/A   Clear